This demonstration page uses our WeatherBlox Daily Observations layout. Learn more.

39.92423, -83.80882

Hourly Observations for December 18, 2019

Temp ( °F °C ) Dew Point ( °F °C ) Humidity (%) Winds ( mph kmh ) Pressure ( in mb ) Visibility ( mi km ) Precip ( " mm )
12:56 am 00:56 Clear 23 -5 19 -7.2 85 85 W 15 24 30.08 1019 10 16.0934 0 0
1:56 am 01:56 Mostly Clear 22 -5.6 19 -7.2 89 89 W 18 30 30.07 1018 10 16.0934 0 0
2:10 am 02:10 Mostly Cloudy 21 -6 19 -7 93 93 W 16 26 30.11 1020 10 16.0934 0 0
2:19 am 02:19 Cloudy 21 -6 19 -7 93 93 W 20 31 30.11 1020 10 16.0934 0 0
2:56 am 02:56 Cloudy 20 -6.7 18 -7.8 92 92 WNW 18 30 30.1 1019 8 12.87472 0 0
3:35 am 03:35 Cloudy with Mist and Fog 18 -8 18 -8 100 100 W 16 26 30.16 1021 5 8.0467 0.001 0.001
3:56 am 03:56 Cloudy with Mist and Fog 19 -7.2 18 -7.8 96 96 W 13 20 30.11 1020 6 9.65604 0.001 0.001
4:17 am 04:17 Cloudy with Mist and Fog 19 -7 18 -8 93 93 W 13 20 30.15 1021 6 9.65604 0 0
4:56 am 04:56 Cloudy 19 -7.2 18 -7.8 96 96 W 13 20 30.11 1020 7 11.26538 0 0
5:26 am 05:26 Cloudy 19 -7 18 -8 93 93 W 16 26 30.16 1021 7 11.26538 0 0
5:56 am 05:56 Cloudy 20 -6.7 18 -7.8 92 92 WSW 14 22 30.12 1020 7 11.26538 0 0
6:56 am 06:56 Cloudy 21 -6.1 19 -7.2 92 92 W 13 20 30.15 1021 7 11.26538 0 0
7:56 am 07:56 Cloudy with Mist and Fog 20 -6.7 19 -7.2 96 96 W 12 19 30.16 1021 6 9.65604 0 0
8:56 am 08:56 Cloudy with Mist and Fog 21 -6.1 19 -7.2 92 92 W 10 17 30.18 1022 5 8.0467 0 0
9:56 am 09:56 Cloudy 23 -5 21 -6.1 92 92 W 14 22 30.2 1023 8 12.87472 0 0
10:56 am 10:56 Mostly Cloudy 26 -3.3 20 -6.7 78 78 W 17 28 30.22 1023 9 14.48406 0.001 0.001
11:56 am 11:56 Mostly Cloudy 25 -3.9 19 -7.2 78 78 W 20 31 30.21 1023 10 16.0934 0 0
12:44 pm 12:44 Cloudy 25 -4 18 -8 74 74 W 18 30 30.24 1024 10 16.0934 0.001 0.001
12:56 pm 12:56 Cloudy 26 -3.3 18 -7.8 71 71 W 17 28 30.22 1024 10 16.0934 0.001 0.001
1:56 pm 13:56 Partly Cloudy with Scattered Snow Showers 25 -3.9 18 -7.8 75 75 WNW 17 28 30.23 1024 10 16.0934 0.001 0.001
2:56 pm 14:56 Mostly Sunny 25 -3.9 17 -8.3 72 72 WNW 16 26 30.25 1024 10 16.0934 0.001 0.001
3:56 pm 15:56 Mostly Sunny 23 -5 16 -8.9 74 74 WNW 15 24 30.28 1025 10 16.0934 0 0
4:56 pm 16:56 Mostly Sunny 22 -5.6 15 -9.4 75 75 WNW 12 19 30.31 1026 10 16.0934 0 0
5:56 pm 17:56 Clear 20 -6.7 13 -10.6 74 74 WNW 12 19 30.34 1028 10 16.0934 0 0
6:56 pm 18:56 Clear 19 -7.2 12 -11.1 74 74 W 13 20 30.37 1029 10 16.0934 0 0
7:56 pm 19:56 Clear 17 -8.3 11 -11.7 77 77 WNW 9 15 30.4 1029 10 16.0934 0 0
8:56 pm 20:56 Clear 16 -8.9 10 -12.2 77 77 WNW 7 11 30.42 1030 10 16.0934 0 0
9:56 pm 21:56 Clear 14 -10 9 -12.8 80 80 W 6 9 30.42 1030 10 16.0934 0 0
10:56 pm 22:56 Clear 13 -10.6 8 -13.3 81 81 WNW 7 11 30.42 1030 10 16.0934 0 0
11:56 pm 23:56 Clear 13 -10.6 8 -13.3 81 81 WNW 8 13 30.45 1031 10 16.0934 0 0

Powered by AerisWeather